Location: Charleville
(26.4021°S, 146.2454°E)
Time: 03:38:04
(UTC+10:00)

Envisat - Pass Details

Date: 13 November 2025
Orbit: 761 x 762 km, 98.4° (Epoch: 05 December)

Event Time Altitude Azimuth Distance (km) Brightness Sun altitude
Exits shadow 02:31:30 25° 198° (SSW) 1,509 4.7 -32.3°
Drops below altitude 10° 02:33:37 10° 195° (SSW) 2,316 5.8 -32.0°
Sets 02:35:56 0° 194° (SSW) 3,249 6.6 -31.6°
